Printer-friendly version
Follow the MPC on Twitter Follow the MPC on Facebook The MPC blog
Minor Planet Center

MPEC 2009-F97 : 2009 FN32

The following Minor Planet Electronic Circular may be linked-to from your own Web pages, but must not otherwise be redistributed electronically.

A form allowing access to any MPEC is at the bottom of this page.


Read MPEC 2009-F96 Read MPEC 2009-F98


M.P.E.C. 2009-F97                                Issued 2009 Mar. 30, 15:01 UT

     The Minor Planet Electronic Circulars contain information on unusual
         minor planets and routine data on comets.  They are published
   on behalf of Commission 20 of the International Astronomical Union by the
          Minor Planet Center, Smithsonian Astrophysical Observatory,
                          Cambridge, MA 02138, U.S.A.

             Prepared using the Tamkin Foundation Computer Network

                              MPC@CFA.HARVARD.EDU
          URL http://www.cfa.harvard.edu/iau/mpc.html  ISSN 1523-6714

                                   2009 FN32

Observations:
     K09F32N* C2009 03 28.41625 14 38 30.76 -02 48 40.6          19.9 V EF097G96
     K09F32N  C2009 03 28.42314 14 38 32.53 -02 47 41.4          20.2 V EF097G96
     K09F32N  C2009 03 28.43006 14 38 34.36 -02 46 41.1          20.0 V EF097G96
     K09F32N  C2009 03 28.43697 14 38 36.16 -02 45 41.4          20.1 V EF097G96
     K09F32N  C2009 03 28.47325 14 38 45.52 -02 40 27.4          20.1 V EF097G96
     K09F32N  C2009 03 28.47406 14 38 45.74 -02 40 21.1          20.1 V EF097G96
     K09F32N  C2009 03 28.47486 14 38 46.03 -02 40 12.5          20.7 V EF097G96
     K09F32N  C2009 03 28.47568 14 38 46.17 -02 40 05.9          20.1 V EF097G96
     K09F32N  C2009 03 29.01047 14 41 13.93 -01 22 57.2                 EF097J95
     K09F32N  C2009 03 29.01671 14 41 15.49 -01 22 02.5          19.8 R EF097J95
     K09F32N  C2009 03 29.37456 14 42 52.16 -00 29 54.6          20.3 V EF097G96
     K09F32N  C2009 03 29.37700 14 42 52.81 -00 29 34.0          19.7 V EF097G96
     K09F32N  C2009 03 29.37944 14 42 53.42 -00 29 12.2          20.2 V EF097G96
     K09F32N  C2009 03 29.38192 14 42 54.07 -00 28 50.2          19.9 V EF097G96
     K09F32N  C2009 03 29.43387 14 43 07.27 -00 21 17.8          20.0 R EF097H01
     K09F32N  C2009 03 29.43856 14 43 08.47 -00 20 36.9          20.0 R EF097H01
     K09F32N  C2009 03 29.44172 14 43 09.29 -00 20 09.2          20.2 R EF097H01
     K09F32N  C2009 03 29.44558 14 43 10.29 -00 19 35.5          20.3 R EF097H01
     K09F32N  C2009 03 30.08697 14 46 04.43 +01 13 42.7                 EF097J95
     K09F32N  C2009 03 30.09366 14 46 06.19 +01 14 41.4                 EF097J95
     K09F32N  C2009 03 30.09868 14 46 07.46 +01 15 25.3          20.1 R EF097J95
     K09F32N  C2009 03 30.33313 14 47 11.61 +01 49 49.2          19.9 R EF097854
     K09F32N  C2009 03 30.33952 14 47 13.18 +01 50 43.2          19.8 R EF097854
     K09F32N  C2009 03 30.34589 14 47 14.72 +01 51 40.9          19.9 R EF097854

Observer details:
854 Sabino Canyon Observatory, Tucson.  Observer J. E. McGaha.  0.36-m f/10.0
    Schmidt-Cassegrain + CCD.
G96 Mt. Lemmon Survey.  Observer A. Boattini.  Measurers E. C. Beshore,
    A. Boattini, G. J. Garradd, A. R. Gibbs, A. D. Grauer, R. E. Hill,
    R. A. Kowalski, S. M. Larson, R. H. McNaught.  1.5-m reflector + CCD.
H01 Magdalena Ridge Observatory, Socorro.  Observer W. H. Ryan.  2.4-m f/8.9
    reflector + CCD.
J95 Great Shefford.  Observer P. Birtwhistle.  0.40-m f/6.0 Schmidt-Cassegrain
    + CCD.

Orbital elements:
2009 FN32                                                Earth MOID = 0.1834 AU
Epoch 2009 June 18.0 TT = JDT 2455000.5                 MPC
M  20.50502              (2000.0)            P               Q
n   0.29916569     Peri.   16.66962     -0.90769318     +0.41311218
a   2.2140879      Node   188.86677     -0.41841888     -0.90435463
e   0.4714945      Incl.   28.56354     -0.03191751     +0.10714954
P   3.29           H   22.1           G   0.15           U   8
Residuals in seconds of arc
090328 G96  0.6-  0.0     090329 J95  0.8+  0.3-    090329 H01  0.2+  0.2+
090328 G96  0.7-  0.4-    090329 J95  0.4-  0.1+    090329 H01  0.3+  0.2+
090328 G96  0.1-  0.1+    090329 G96  0.8-  0.0     090330 J95  0.2-  0.1+
090328 G96  0.2+  0.0     090329 G96  0.4-  0.7-    090330 J95  0.3+  0.2+
090328 G96  0.3-  0.1+    090329 G96  0.6-  0.2-    090330 J95  0.1-  0.1+
090328 G96  0.2-  0.6-    090329 G96  0.4-  0.1+    090330 854  0.9+  0.3+
090328 G96  1.0+  1.1+    090329 H01  0.1+  0.1+    090330 854  0.0   1.7-
090328 G96  0.0   0.6+    090329 H01  0.1+  0.1+    090330 854  1.2-  0.2+

Ephemeris:
2009 FN32                a,e,i = 2.21, 0.47, 29                  q = 1.1702
Date    TT    R. A. (2000) Decl.     Delta      r     Elong.  Phase     V
2009 03 30    14 45.68   +01 01.5    0.206    1.177   146.8    27.7    20.3
2009 04 04    15 07.49   +12 59.2    0.210    1.172   141.6    32.0    20.4
2009 04 09    15 27.59   +23 36.7    0.225    1.170   134.3    37.7    20.7
2009 04 14    15 45.46   +32 08.8    0.249    1.171   127.3    43.0    21.1
2009 04 19    16 00.80   +38 36.2    0.279    1.174   121.4    46.9    21.4
2009 04 24    16 13.56   +43 20.2    0.312    1.179   116.8    49.6    21.8
2009 04 29    16 23.87   +46 44.4    0.346    1.187   113.3    51.2    22.1

Sonia Keys                   (C) Copyright 2009 MPC           M.P.E.C. 2009-F97

Read MPEC 2009-F96 Read MPEC 2009-F98


MPEC number:

Enter an MPEC number in one of the following forms:

  • 1997-B01 (the full form)
  • J97B01 (the packed version of the full form)
  • B01 (the abbreviated form)

Valid HTML 4.01!